Tucker-Guthrie Memorial (I35)

 

Airport Diagram
No Airport Diagram Available
Current Weather/Forecast (MVFR Conditions)
METAR KI35 071155Z AUTO 31006G14KT 270V360 4SM BKN018 OVC039 09/07 A3001 RMK AO2 T00850066 10101 20082
TAF

Airport Information

All Charts
General
Chart Name View
TAKEOFF MINIMUMS
ALTERNATE MINIMUMS

Approaches
Chart Name Download
RNAV (GPS)-A


Airport Statistics
Departures Arrivals Local
All Collected Stats since June 2016: 2 2 0
2021 Stats: 0 0 0
May Stats: 0 0 0

Inbound Traffic (Arrivals) - 0

No inbound traffic.


Outbound Traffic (Departures) - 0

No outbound traffic.


Local Traffic (Pattern) - 0

No local traffic.